Tracking 30923 objects as of 1-Jul-2025
HD Live streaming from Space Station
objects crossing your sky now

SL-16 DEB

Track SL-16 DEB now!
10-day predictions


NORAD ID: 22500
Int'l Code: 1992-093GK
Perigee: 760.0 km
Apogee: 848.7 km
Inclination: 70.8 °
Period: 100.8 minutes
Semi major axis: 7175 km
RCS: 0.008 m2 (small)
Launch date: December 25, 1992
Source: Commonwealth of Independent States (former USSR) (CIS)
Launch site: TYURATAM MISSILE AND SPACE COMPLEX (TTMTR)

Note: This is SATELLITE DEBRIS
Your satellite tracking list
Your tracking list is empty




NASA's NSSDC Master Catalog

Two Line Element Set (TLE):
1 22500U 92093GK  25181.82582680  .00000479  00000-0  20756-3 0  9991
2 22500  70.8479  72.1430 0061833 305.9805  53.5599 14.28353240680219
Source of the keplerian elements: AFSPC